Regional Weather Roundup
Issued by NWS Cleveland, OH

Home | Current Version | Previous Version | Text Only | Print | Product List | Glossary Off
Versions: 1 2 3 4 5 6 7 8 9 10 11 12 13 14 15 16 17 18 19 20 21 22 23 24 25 26 27 28 29 30 31 32 33 34 35 36 37 38 39 40 41 42 43 44 45 46 47 48 49 50

000
ASUS41 KCLE 021500
RWRCLE
OHIO REGIONAL WEATHER ROUNDUP
NATIONAL WEATHER SERVICE WILMINGTON, OH
1000 AM EST FRI DEC 02 2016

NOTE: "FAIR" INDICATES FEW OR NO CLOUDS BELOW 12,000 FEET WITH NO
SIGNIFICANT WEATHER AND/OR OBSTRUCTIONS TO VISIBILITY.

OHZ001>008-015>018-024>027-034-035-043-044-021600-
   NORTHWEST OHIO

CITY           SKY/WX    TMP DP  RH WIND       PRES   REMARKS
DEFIANCE       LGT RAIN  38  33  82 SW7       30.11R
FINDLAY        CLOUDY    38  31  76 W17G26    30.09R
TOLEDO EXPRESS CLOUDY    38  33  82 W16       30.07R
TOLEDO EXEC    CLOUDY    39  34  82 W14G23    30.08R
LIMA           CLOUDY    35  34  96 W12       30.12R WCI  27
$$

OHZ009>014-019>023-028>033-038-089-021600-
   NORTHEAST OHIO

CITY           SKY/WX    TMP DP  RH WIND       PRES   REMARKS
CLE-HOPKINS    CLOUDY    39  30  70 W16       30.08R
CLE-LAKEFRONT  CLOUDY    40  32  73 SW17G29   30.05R
CUY CO. ARPT   CLOUDY    39  34  81 W16       30.04R
LORAIN-ELYRIA  CLOUDY    37  29  72 W14       30.07R
ASHTABULA      MIX PCPN  37  33  85 SW16G22   30.00R
AKRON-CANTON   CLOUDY    38  28  67 W14G22    30.06R
WOOSTER        NOT AVBL
MANSFIELD      CLOUDY    36  29  75 SW13G22   30.07R
YOUNGSTOWN     CLOUDY    37  29  72 SW12      30.03R
$$

OHZ042-051>053-060>062-070>072-077>081-021600-
  SOUTHWEST OHIO

CITY           SKY/WX    TMP DP  RH WIND       PRES   REMARKS
CINC-COVINGTON CLOUDY    37  29  72 W10       30.18R
CINC-LUNKEN    CLOUDY    38  30  73 W8G17     30.21R
HAMILTON       CLOUDY    38  28  67 W7        30.20R
DAYTON         CLOUDY    35  31  85 W12       30.15R WCI  27
WRIGHT-PAT AFB NOT AVBL
DAYTON GENERAL CLOUDY    37  28  70 W7        30.16R
WILMINGTON     CLOUDY    35  29  78 W10       30.16R WCI  27
$$

OHZ036-037-039>041-045>050-054>059-063>069-073>076-082>088-021600-
  CENTRAL AND SOUTHEAST OHIO

CITY           SKY/WX    TMP DP  RH WIND       PRES   REMARKS
COLUMBUS       CLOUDY    37  31  78 W12       30.13S
OSU AIRPORT    CLOUDY    37  31  78 W10       30.13S
BOLTON FIELD   NOT AVBL
RICKENBACK AFB NOT AVBL
NEWARK         CLOUDY    37  30  75 W10G20    30.13R
MARION         CLOUDY    37  30  75 SW12      30.11R
LANCASTER      CLOUDY    36  32  85 W5        30.15R FOG
ZANESVILLE     CLOUDY    37  30  75 W10       30.13R
NEW PHILLY     CLOUDY    37  30  75 SW8       30.10S
$$



USA.gov is the U.S. government's official web portal to all federal, state and local government web resources and services.